Location: Neuvy Saint Sepulchre
(46.5953°N, 1.8122°E)
Time: 16:25:31
(UTC+02:00)

ISS - Pass Details

Date: 02 May 2026
Orbit: 414 x 424 km, 51.6° (Epoch: 21 May)

Event Time Altitude Azimuth Distance (km) Brightness Sun altitude
Exits shadow 02:29:56 12° 61° (ENE) 1,375 -0.7 -27.4°
Drops below altitude 10° 02:30:10 10° 62° (ENE) 1,472 -0.6 -27.4°
Sets 02:32:21 0° 64° (ENE) 2,367 0.6 -27.3°
